Regional Weather Roundup
Issued by NWS

Home | Current Version | Previous Version | Graphics & Text | Print | Product List | Glossary On
Versions: 1 2 3 4 5 6 7 8 9 10 11 12 13 14 15 16 17 18 19 20 21 22 23 24 25 26 27 28 29 30 31 32 33 34 35 36 37 38 39 40 41 42 43 44 45 46 47 48 49 50
000
ASUS43 KLSX 211959
RWRMO

WEATHER SUMMARY FOR MISSOURI
NATIONAL WEATHER SERVICE SPRINGFIELD MO
200 PM CST SUN DEC 21 2014

NOTE: "FAIR" INDICATES FEW OR NO CLOUDS BELOW 12,000 FEET WITH NO
       SIGNIFICANT WEATHER AND/OR OBSTRUCTIONS TO VISIBILITY.
       CURRENT SKY AND/OR WEATHER CONDITIONS ARE NOT AVAILABLE FOR
       CHILLICOTHE AND FARMINGTON.

MOZ001>031-035>038-043-044-053-054-212100-
...NORTHERN AND WESTERN MISSOURI...

CITY           SKY/WX    TMP DP  RH WIND       PRES   REMARKS
KANSAS CTY INT CLOUDY    44  39  82 S14       29.86F
KANSAS C DTWN  CLOUDY    46  39  76 S10       29.87F
LEE`S SUMMIT   CLOUDY    46  38  73 S12G20    29.88F
ST JOSEPH      CLOUDY    44  39  82 S14G21    29.85F
CHILLICOTHE      N/A     45  39  79 S13G18    29.90F
KIRKSVILLE     CLOUDY    45  39  79 S14       29.92F

$$
MOZ066>068-077>081-088>096-101>105-212100-
...SOUTHWEST MISSOURI...

CITY           SKY/WX    TMP DP  RH WIND       PRES   REMARKS
SPRINGFIELD    CLOUDY    42  37  82 SE17      29.93F
JOPLIN         CLOUDY    47  40  76 S13       29.91F

$$
MOZ032>034-039>042-045>050-055>058-069>072-212100-
...CENTRAL MISSOURI...

CITY           SKY/WX    TMP DP  RH WIND       PRES   REMARKS
COLUMBIA       CLOUDY    43  38  82 S17       29.97F
JEFFERSON CITY CLOUDY    45  37  73 S12       29.99F
ROLLA          CLOUDY    39  36  89 SE12      29.99F FOG
SEDALIA        CLOUDY    45  40  82 S15       29.94F
OSAGE BEACH    CLOUDY    43  37  81 S13G20    29.97F

$$
MOZ051-052-059>065-212100-
...EAST CENTRAL MISSOURI...

CITY           SKY/WX    TMP DP  RH WIND       PRES   REMARKS
ST LOUIS INTL  CLOUDY    44  32  62 SE14      30.06F
SPIRIT OF STL  CLOUDY    44  34  67 S7        30.04F
ST CHARLES     CLOUDY    43  34  70 SE15      30.05F

$$
MOZ072>076-082>087-097>100-106>115-212100-
...SOUTH CENTRAL AND SOUTHEAST MISSOURI...

CITY           SKY/WX    TMP DP  RH WIND       PRES   REMARKS
CAPE GIRARDEAU CLOUDY    45  32  60 SE8       30.09F
FARMINGTON     CLOUDY    41  32  70 E7        30.07F
POPLAR BLUFF   CLOUDY    43  31  62 E3        30.07F
WEST PLAINS    CLOUDY    41  33  73 SE8       30.01F

$$



USA.gov is the U.S. government's official web portal to all federal, state and local government web resources and services.